This is the latest recevied weather packets stored in our database for station/object OE5RBO. If no packets are shown the sender has not sent any weather packets the latest 10 day(s).
| Time | Temp. | Humidity | Pressure | Rain* | Wind** | Luminosity | Snow |
|---|---|---|---|---|---|---|---|
| 1788170533 | 22.78° C | 75% | 1018.3 hPa | 1.52 mm | - | - | - |
| 1788169333 | 22.78° C | 78% | 1018.4 hPa | 1.52 mm | - | - | - |
| 1788168732 | 23.33° C | 77% | 1018.4 hPa | 1.52 mm | - | - | - |
| 1788168132 | 22.78° C | 79% | 1018.4 hPa | 1.52 mm | - | - | - |
| 1788167531 | 22.78° C | 79% | 1018.4 hPa | 1.52 mm | - | - | - |
| 1788166931 | 22.78° C | 78% | 1018.5 hPa | 1.52 mm | - | - | - |
| 1788166331 | 22.22° C | 80% | 1018.5 hPa | 1.52 mm | - | - | - |
| 1788165731 | 22.22° C | 79% | 1018.4 hPa | 1.52 mm | - | - | - |
| 1788165130 | 21.67° C | 80% | 1018.3 hPa | 1.52 mm | - | - | - |
| 1788164530 | 22.22° C | 81% | 1018.2 hPa | 1.52 mm | - | - | - |
| 1788163929 | 22.22° C | 83% | 1018.2 hPa | 1.52 mm | - | - | - |
| 1788163329 | 22.78° C | 78% | 1018.1 hPa | 1.52 mm | - | - | - |
| 1788161528 | 22.78° C | 82% | 1017.9 hPa | 1.52 mm | - | - | - |
| 1788160927 | 22.22° C | 81% | 1017.7 hPa | 1.52 mm | - | - | - |
| 1788160327 | 21.11° C | 82% | 1018 hPa | 1.52 mm | - | - | - |
| 1788159126 | 18.89° C | 95% | 1018 hPa | 1.52 mm | - | - | - |
| 1788158526 | 18.89° C | 96% | 1018 hPa | 1.52 mm | - | - | - |
| 1788157926 | 18.33° C | 96% | 1017.9 hPa | 1.52 mm | - | - | - |
| 1788157325 | 17.78° C | 97% | 1017.9 hPa | 1.52 mm | - | - | - |
| 1788156725 | 17.78° C | 97% | 1018 hPa | 1.52 mm | - | - | - |
| 1788156125 | 17.78° C | 97% | 1018.1 hPa | 1.52 mm | - | - | - |
| 1788155541 | 17.78° C | 98% | 1018 hPa | 1.52 mm | - | - | - |
| 1788154324 | 17.78° C | 98% | 1017.7 hPa | 1.27 mm | - | - | - |
| 1788153723 | 17.78° C | 98% | 1017.9 hPa | 1.27 mm | - | - | - |
| 1788153123 | 17.78° C | 98% | 1017.7 hPa | 1.27 mm | - | - | - |
* Rain since midnight (hover to see other rain measurements)
** Current wind speed in m/s (hover to see current wind gust speed)